Mount Pleasant, MI

11:34 PM EST on December 16, 2017 (GMT -0500)
Mount Pleasant Municipal

Weather History for KMOP - October, 2012

Change the Weather History Date:

Thursday, October 25, 2012

  Actual Average (KAMN) Record (KAMN)
Temperature  
Mean Temperature 68 °F -  
Max Temperature 78 °F 58 °F 81 °F (1963)
Min Temperature 59 °F 37 °F 20 °F (1960)
Cooling Degree Days 4    
Growing Degree Days 18 (Base 50)    
Moisture  
Dew Point 56 °F    
Average Humidity 67    
Maximum Humidity 89    
Minimum Humidity 43    
Precipitation  
Precipitation 0.12 in - - ()
Sea Level Pressure  
Sea Level Pressure 29.82 in    
Wind  
Wind Speed 8 mph (South)    
Max Wind Speed 22 mph    
Max Gust Speed 30 mph    
Visibility 10 miles    
Events      
Averages and records for this station are not official NWS values.
T = Trace of Precipitation, MM = Missing Value Source: NWS Daily Summary

Daily Weather History Graph

Daily Weather History Graph

Search for Another Location

Airport or City:

Trip Planner

Search our weather history database for the weather conditions in past years. The results will help you decide how hot, cold, wet, or windy it might be!

Date:

Astronomy

Oct. 25, 2012 Rise Set
Actual Time 8:06 AM EDT 6:38 PM EDT
Civil Twilight 7:36 AM EDT 7:08 PM EDT
Nautical Twilight 7:03 AM EDT 7:41 PM EDT
Astronomical Twilight 6:30 AM EDT 8:15 PM EDT
Moon 4:30 PM EDT (10/25) 3:55 AM EDT (10/25)
Length of Visible Light 11h 31m
Length of Day
10h 32m
Waxing Gibbous, 84% of the Moon is Illuminated
Oct 25
Waxing Gibbous
Oct 29
Full
Nov 6
Last Quarter
Nov 13
New
Nov 20
First Quarter

Hourly Weather History & Observations

Time (EDT) Temp. Dew Point Humidity Pressure Visibility Wind Dir Wind Speed Gust Speed Precip Events Conditions
12:15 AM 66.2 °F 59.4 °F 79% 29.92 in 10.0 mi SSE 5.8 mph - N/A   Scattered Clouds
12:35 AM 65.3 °F 59.2 °F 81% 29.92 in 10.0 mi South 4.6 mph - N/A   Scattered Clouds
12:55 AM 64.8 °F 59.0 °F 82% 29.92 in 10.0 mi South 4.6 mph - N/A   Scattered Clouds
1:35 AM 64.0 °F 59.0 °F 84% 29.91 in 10.0 mi SSE 4.6 mph - N/A   Mostly Cloudy
1:55 AM 63.5 °F 59.0 °F 85% 29.91 in 10.0 mi South 3.5 mph - N/A   Scattered Clouds
2:15 AM 63.5 °F 58.6 °F 84% 29.92 in 10.0 mi South 4.6 mph - N/A   Clear
2:35 AM 63.0 °F 58.5 °F 85% 29.91 in 10.0 mi South 4.6 mph - N/A   Clear
2:55 AM 62.6 °F 58.3 °F 86% 29.91 in 10.0 mi South 3.5 mph - N/A   Clear
3:35 AM 61.7 °F 58.1 °F 88% 29.90 in 10.0 mi South 4.6 mph - N/A   Clear
3:55 AM 61.5 °F 57.9 °F 88% 29.90 in 10.0 mi South 4.6 mph - N/A   Clear
4:15 AM 61.0 °F 57.7 °F 89% 29.89 in 10.0 mi South 4.6 mph - N/A   Clear
4:35 AM 60.8 °F 57.4 °F 88% 29.89 in 10.0 mi South 5.8 mph - N/A   Clear
4:55 AM 60.8 °F 57.4 °F 88% 29.89 in 10.0 mi South 4.6 mph - N/A   Clear
5:15 AM 60.4 °F 57.2 °F 89% 29.88 in 10.0 mi SSE 5.8 mph - N/A   Clear
5:35 AM 60.3 °F 56.8 °F 88% 29.88 in 10.0 mi SSE 5.8 mph - N/A   Clear
5:55 AM 59.9 °F 56.3 °F 88% 29.88 in 10.0 mi SSE 5.8 mph - N/A   Clear
6:15 AM 59.9 °F 55.9 °F 87% 29.87 in 10.0 mi SSE 5.8 mph - N/A   Clear
6:35 AM 59.5 °F 55.8 °F 87% 29.87 in 10.0 mi SSE 5.8 mph - N/A   Clear
6:55 AM 59.9 °F 55.6 °F 86% 29.87 in 10.0 mi South 5.8 mph - N/A   Clear
7:15 AM 59.9 °F 55.4 °F 85% 29.87 in 10.0 mi South 5.8 mph - N/A   Clear
7:55 AM 59.9 °F 54.7 °F 83% 29.87 in 10.0 mi South 6.9 mph - N/A   Clear
8:15 AM 60.1 °F 54.7 °F 82% 29.87 in 10.0 mi South 6.9 mph - N/A   Clear
8:35 AM 60.8 °F 55.0 °F 81% 29.87 in 10.0 mi South 8.1 mph - N/A   Clear
8:54 AM 61.5 °F 55.4 °F 80% 29.86 in 10.0 mi South 6.9 mph - N/A   Clear
9:35 AM 63.7 °F 56.3 °F 77% 29.87 in 10.0 mi North - - N/A   Clear
9:55 AM 65.5 °F 56.8 °F 74% 29.87 in 10.0 mi North - - N/A   Clear
10:15 AM 66.7 °F 57.2 °F 71% 29.87 in 10.0 mi North - - N/A   Clear
10:35 AM 68.4 °F 58.1 °F 70% 29.87 in 10.0 mi North - - N/A   Clear
10:55 AM 69.8 °F 58.5 °F 67% 29.86 in 10.0 mi North - - N/A   Clear
11:15 AM 70.9 °F 59.0 °F 66% 29.85 in 10.0 mi North - - N/A   Clear
11:35 AM 72.0 °F 59.0 °F 64% 29.84 in 10.0 mi North - - N/A   Clear
11:55 AM - - N/A% - - North - - N/A   Unknown
12:15 PM - - N/A% - - North - - N/A   Unknown
12:35 PM - - N/A% - - North - - N/A   Unknown
12:55 PM - - N/A% - - North - - N/A   Unknown
1:15 PM - - N/A% - - North - - N/A   Unknown
1:35 PM 76.6 °F 57.2 °F 51% 29.78 in 10.0 mi South 18.4 mph 29.9 mph N/A   Clear
1:55 PM 77.7 °F 57.0 °F 49% 29.77 in 10.0 mi SSE 13.8 mph 24.2 mph N/A   Clear
2:15 PM 77.7 °F 56.5 °F 48% 29.76 in 10.0 mi SSE 19.6 mph 28.8 mph N/A   Clear
2:35 PM 77.9 °F 55.8 °F 46% 29.76 in 10.0 mi South 19.6 mph 27.6 mph N/A   Clear
2:55 PM 77.9 °F 54.1 °F 44% 29.75 in 10.0 mi South 18.4 mph 28.8 mph N/A   Clear
3:15 PM 78.1 °F 54.0 °F 43% 29.75 in 10.0 mi SSW 19.6 mph 26.5 mph N/A   Clear
3:35 PM 78.1 °F 54.5 °F 44% 29.74 in 10.0 mi South 17.3 mph 25.3 mph N/A   Clear
4:14 PM 77.5 °F 54.5 °F 45% 29.74 in 10.0 mi South 18.4 mph 27.6 mph N/A   Clear
4:35 PM 77.9 °F 55.4 °F 46% 29.73 in 10.0 mi South 18.4 mph 27.6 mph N/A   Clear
4:55 PM 77.0 °F 55.6 °F 47% 29.73 in 10.0 mi South 15.0 mph 25.3 mph N/A   Clear
5:14 PM 76.8 °F 55.4 °F 47% 29.73 in 10.0 mi South 15.0 mph 26.5 mph N/A   Clear
5:35 PM 76.6 °F 54.1 °F 46% 29.73 in 10.0 mi South 17.3 mph 24.2 mph N/A   Clear
5:55 PM 75.7 °F 55.0 °F 49% 29.73 in 10.0 mi South 12.7 mph 19.6 mph N/A   Clear
6:15 PM 74.7 °F 54.9 °F 50% 29.73 in 10.0 mi South 13.8 mph 20.7 mph N/A   Clear
6:35 PM 73.8 °F 54.9 °F 52% 29.73 in 10.0 mi South 10.4 mph 21.9 mph N/A   Clear
6:55 PM 72.9 °F 55.0 °F 53% 29.74 in 10.0 mi South 10.4 mph 18.4 mph N/A   Clear
7:15 PM 72.1 °F 55.4 °F 56% 29.76 in 10.0 mi South 10.4 mph - N/A   Clear
7:35 PM 73.4 °F 55.4 °F 53% 29.76 in 10.0 mi SSW 12.7 mph 23.0 mph N/A   Mostly Cloudy
7:55 PM 73.4 °F 55.4 °F 53% 29.76 in 10.0 mi South 10.4 mph 19.6 mph N/A   Overcast
8:14 PM 72.1 °F 55.8 °F 56% 29.75 in 10.0 mi South 9.2 mph 17.3 mph N/A   Scattered Clouds
8:35 PM 71.2 °F 55.6 °F 58% 29.74 in 10.0 mi South 10.4 mph - N/A   Clear
8:55 PM 70.9 °F 55.8 °F 59% 29.74 in 10.0 mi South 11.5 mph 18.4 mph N/A   Clear
9:15 PM 70.7 °F 55.6 °F 59% 29.74 in 10.0 mi South 15.0 mph - N/A   Clear
9:35 PM 70.2 °F 55.4 °F 59% 29.75 in 10.0 mi South 11.5 mph 19.6 mph N/A   Clear
9:55 PM 69.8 °F 55.0 °F 59% 29.75 in 10.0 mi South 10.4 mph 18.4 mph N/A   Clear
10:15 PM 69.8 °F 54.9 °F 59% 29.74 in 10.0 mi South 13.8 mph 20.7 mph N/A   Mostly Cloudy
10:35 PM 69.4 °F 54.7 °F 59% 29.74 in 10.0 mi South 12.7 mph 17.3 mph N/A   Mostly Cloudy
10:55 PM 68.9 °F 54.7 °F 60% 29.73 in 10.0 mi South 10.4 mph - N/A   Mostly Cloudy
11:35 PM 69.8 °F 55.0 °F 59% 29.73 in 10.0 mi South 9.2 mph 17.3 mph N/A   Overcast
11:55 PM 69.6 °F 57.2 °F 65% 29.76 in 10.0 mi WSW 21.9 mph 29.9 mph N/A   Overcast